Overview Statistics Trail Chart Weather Telemetry Raw packets
 

This is the latest recevied weather packets stored in our database for station/object ED1ZAI-13. If no packets are shown the sender has not sent any weather packets the latest 10 day(s).

<< 1 2 3 4 5 >>
Time Temp. Humidity Pressure Rain* Wind** Luminosity Snow
1788613619 35.56° C - - - - - -
1788613019 36.67° C - - - - - -
1788612432 35.56° C - - - - - -
1788611820 33.89° C 10% 1023.9 hPa - - - -
1788611078 35° C 10% 1024 hPa - - - -
1788610479 36.11° C - - - - - -
1788609879 33.89° C 11% 1024.3 hPa - - - -
1788609279 32.78° C 12% 1024.4 hPa - - - -
1788608679 33.33° C 12% 1024.5 hPa - - - -
1788608079 33.33° C 11% 1024.5 hPa - - - -
1788607478 33.33° C 12% 1024.5 hPa - - - -
1788606878 33.89° C 13% 1024.6 hPa - - - -
1788606278 34.44° C 14% 1024.8 hPa - - - -
1788605679 33.89° C 14% 1024.9 hPa - - - -
1788605079 32.78° C 15% 1025.1 hPa - - - -
1788604479 32.78° C 15% 1025.1 hPa - - - -
1788603878 33.89° C 13% 1025.2 hPa - - - -
1788603278 32.78° C 15% 1025.3 hPa - - - -
1788602678 31.67° C 16% 1025.2 hPa - - - -
1788602079 31.11° C 16% 1025.3 hPa - - - -
1788601479 31.67° C 17% 1025.3 hPa - - - -
1788600879 31.11° C 16% 1025.3 hPa - - - -
1788600279 32.22° C 17% 1025.1 hPa - - - -
1788599678 32.22° C 17% 1025 hPa - - - -
1788599078 32.22° C 17% 1024.9 hPa - - - -

* Rain since midnight (hover to see other rain measurements)
** Current wind speed in m/s (hover to see current wind gust speed)